Wind_Speed
19 18 17 17 18 14 10 9 8 6 5 5 4 3 3 5 4 3 3 2 3 4 5 5 5 5 6 6 7 7 8 8 10 10 10 11 12 13 13 14 14 14 14 14 13 13 12 12 12
19 17 20 22 16 12 11 9 8 7 6 5 4 4 4 4 4 3 4 4 4 5 6 6 6 6 6 6 7 7 7 9 10 10 11 12 13 13 13 14 14 15 15 14 13 12 12 12 11
18 19 23 19 12 12 11 9 9 8 7 6 5 5 4 5 4 4 4 4 4 5 6 6 6 6 6 6 7 7 7 8 9 10 11 12 13 13 13 14 14 14 14 13 12 11 11 11 10
19 24 21 14 13 13 12 10 10 9 8 7 6 6 5 5 5 5 5 5 5 6 7 7 6 6 6 7 7 7 7 8 9 10 11 12 13 13 13 13 13 13 13 12 11 11 10 10 9
22 23 16 13 12 13 12 11 11 9 8 8 8 7 6 6 6 6 6 6 7 7 7 7 7 6 6 6 7 7 7 8 8 10 11 11 12 13 12 12 12 12 11 10 10 10 10 8 8
24 21 13 12 13 12 12 11 11 10 9 9 8 8 7 7 7 6 7 7 7 7 7 7 7 6 6 6 6 6 7 7 8 9 8 10 11 11 12 12 11 11 10 9 9 9 8 8 7
22 16 11 11 12 13 12 11 10 10 10 10 9 9 9 9 8 7 7 7 7 7 7 7 7 6 6 6 6 6 6 7 8 8 8 10 10 11 11 11 10 10 9 9 9 9 8 7 6
16 13 9 9 11 12 12 12 11 11 11 10 10 11 10 10 9 8 8 7 8 8 8 7 7 6 6 6 6 6 6 7 7 7 8 9 9 10 10 10 9 9 10 9 9 8 7 6 5
13 11 10 9 10 12 12 13 12 12 12 12 11 11 11 11 10 9 8 8 8 7 7 7 7 7 6 6 6 6 6 6 7 7 8 8 9 9 9 8 8 9 8 8 7 7 6 5 4
10 10 8 8 10 11 12 13 13 13 12 12 12 12 12 11 11 11 10 9 8 7 7 7 7 6 6 6 6 6 6 6 6 7 8 7 8 8 8 7 6 7 7 6 6 5 4 4 3
9 7 7 9 10 12 13 14 14 15 13 12 12 12 13 12 12 12 11 10 9 7 7 8 7 8 6 6 6 6 6 5 6 7 7 7 8 7 7 6 6 6 5 5 4 3 3 2 1
8 8 8 9 11 12 13 14 14 14 14 12 12 12 13 12 12 11 11 10 9 8 8 7 7 8 8 7 6 6 6 7 7 6 6 7 7 7 5 5 5 5 4 3 3 3 2 1 1
6 7 8 10 11 13 14 14 13 14 14 13 12 12 12 12 12 11 10 10 9 8 8 8 7 7 7 7 6 6 7 7 6 5 5 5 4 5 4 4 3 3 2 1 1 1 0 0 1
5 6 8 9 10 11 13 13 13 14 13 13 13 12 13 12 12 11 11 10 9 9 8 8 8 8 8 7 8 7 7 7 6 5 4 3 3 3 3 2 2 1 1 1 1 0 1 2 2
3 5 7 8 10 10 11 14 14 13 13 13 13 13 13 13 12 12 11 10 10 9 9 9 9 8 8 8 7 7 6 6 5 5 4 3 2 2 2 2 2 1 1 1 1 1 2 2 3
2 4 6 7 9 9 11 12 13 12 12 12 12 13 13 13 13 13 12 11 11 11 10 9 9 9 8 8 8 8 7 7 6 5 4 3 3 2 2 1 1 1 2 2 2 2 2 3 4
2 1 4 6 7 7 8 9 11 11 11 12 12 12 12 12 13 13 13 12 11 11 11 10 10 10 9 8 8 7 7 7 6 6 5 4 3 2 2 2 2 2 2 2 2 3 4 4 5
2 0 3 4 4 5 6 7 10 10 10 11 11 11 11 11 12 12 12 12 11 10 10 10 10 10 10 9 9 8 7 7 6 6 6 5 4 4 3 3 3 3 3 3 4 4 5 5 6
3 2 4 3 3 4 5 6 8 10 10 10 10 10 10 11 11 11 11 11 11 11 10 10 10 10 10 10 10 9 8 8 7 6 6 5 5 5 4 3 3 4 4 4 5 5 5 6 7
7 6 7 5 4 4 5 4 5 7 9 9 9 10 10 10 10 10 9 10 10 11 11 11 10 10 10 10 10 9 9 8 7 7 5 5 5 4 4 3 3 4 5 5 5 6 7 7 8
9 9 9 7 7 5 6 7 5 6 7 8 9 8 8 8 8 8 8 8 8 9 9 10 9 10 10 9 9 9 10 8 7 6 5 5 5 5 5 4 4 5 6 6 6 7 8 8 8
12 12 12 10 9 7 6 10 8 7 7 7 8 7 7 7 7 7 7 7 7 7 7 8 8 8 9 9 9 9 9 9 8 7 7 6 5 5 6 6 6 6 7 7 7 8 8 9 9
15 14 13 11 10 9 9 12 10 9 7 6 6 7 7 6 5 5 5 5 5 5 6 6 7 7 7 8 8 9 9 9 8 8 7 7 6 6 7 7 7 7 7 8 8 8 9 9 10
16 15 14 11 11 13 13 14 13 10 8 9 8 7 6 5 5 5 4 4 4 4 4 5 5 6 6 7 8 8 9 9 9 8 8 8 7 7 8 8 8 8 8 8 9 9 9 10 11
17 15 14 13 14 16 13 12 13 9 9 10 10 9 7 5 5 5 5 5 5 4 4 4 5 5 6 7 8 9 9 9 9 9 9 8 8 8 8 9 9 9 10 10 9 10 10 11 12
19 19 18 16 14 14 10 11 11 10 10 11 11 10 9 7 7 6 6 5 5 5 4 4 4 5 5 7 8 8 9 9 10 10 9 9 9 9 10 10 10 10 10 10 11 11 12 13 14
21 21 19 17 16 16 13 11 12 14 13 13 12 11 9 9 9 8 8 7 6 6 5 5 4 5 6 7 8 8 9 9 10 10 10 10 10 10 11 11 11 11 11 11 11 12 13 14 15
23 20 19 19 19 18 16 14 15 14 14 14 14 13 11 11 11 10 9 9 8 8 7 6 6 7 7 8 8 9 9 9 10 11 11 11 12 12 12 12 12 12 13 13 13 13 13 15 16
24 23 22 21 20 20 19 17 16 16 16 17 15 13 13 13 12 12 12 11 10 9 9 8 9 9 9 9 9 10 10 10 11 12 13 14 14 14 14 14 14 14 14 15 15 15 15 15 16
25 25 24 24 23 22 21 20 17 15 14 16 15 15 15 14 14 15 13 13 11 10 10 10 10 10 11 11 11 12 12 12 13 14 15 15 16 16 16 15 15 15 15 16 16 16 16 17 17
Wind_Direction
61 62 62 55 47 35 30 36 39 41 43 49 53 48 42 47 50 41 46 55 79 89 90 102 102 104 107 107 101 100 98 100 102 108 110 115 118 118 120 119 122 122 122 122 121 121 120 118 118
64 62 53 49 40 22 26 32 39 40 44 50 52 45 45 47 54 53 59 64 84 92 92 95 99 99 99 104 104 104 103 106 106 110 115 118 116 117 120 121 123 124 125 123 120 120 118 116 117
66 59 52 42 28 22 27 32 38 42 45 48 46 42 48 55 56 60 67 71 89 94 90 90 92 98 102 104 103 101 106 108 106 112 115 116 117 118 120 121 124 124 123 123 121 119 118 116 115
66 54 50 37 23 29 31 35 38 41 46 48 49 46 55 63 63 65 69 72 82 86 85 88 90 99 107 108 106 105 108 112 113 116 117 117 118 119 119 121 125 125 124 124 122 123 125 122 117
61 57 44 24 23 30 35 40 44 46 47 52 56 53 58 63 65 68 73 76 78 81 84 90 95 101 109 109 108 109 106 110 112 119 117 118 118 119 119 121 122 124 126 127 126 127 127 123 119
64 53 34 16 21 29 35 41 44 49 47 51 57 56 56 58 64 73 78 80 82 85 86 90 94 97 104 108 109 108 111 112 119 118 116 120 120 120 120 122 121 122 124 128 131 131 128 126 121
62 54 31 19 22 30 34 40 44 50 48 51 57 59 59 61 68 75 79 79 80 82 84 87 92 95 97 102 108 105 110 116 118 116 114 118 118 121 122 123 121 120 123 127 129 129 127 124 120
59 55 37 25 24 33 39 44 49 51 50 53 58 62 62 65 68 72 74 74 77 77 78 83 89 90 93 104 110 111 112 116 117 117 120 121 122 125 124 123 121 120 121 120 122 120 123 123 121
53 55 43 34 27 37 44 47 49 51 53 55 58 63 64 63 66 69 70 72 77 76 74 76 80 83 86 97 105 113 119 124 123 121 122 123 126 127 123 119 117 117 116 116 118 116 111 114 117
53 49 40 34 37 44 48 49 47 50 53 55 57 60 64 63 65 67 69 70 72 73 72 72 77 81 85 90 101 114 123 129 130 124 122 125 130 131 127 122 118 119 121 122 120 121 121 114 114
61 56 45 42 44 48 48 47 45 44 49 53 56 57 60 63 64 63 64 67 70 70 69 71 72 76 84 91 99 107 118 117 128 127 123 128 132 129 127 125 119 121 125 126 124 127 124 124 127
57 53 50 47 49 51 50 49 47 45 47 51 54 56 57 58 60 62 62 64 66 66 64 67 69 72 78 86 94 109 114 117 118 119 121 126 125 121 120 118 118 119 122 123 121 120 114 133 166
57 48 45 47 49 49 48 49 46 45 45 48 53 55 56 55 57 58 61 61 62 63 64 68 70 71 79 87 94 107 110 111 112 112 121 126 124 119 121 123 112 111 124 135 118 134 112 14 313
76 57 44 42 45 46 43 42 45 43 43 45 47 51 53 53 54 56 59 59 59 62 64 67 72 72 77 87 88 90 101 100 106 110 116 119 124 121 110 103 89 89 108 114 107 187 345 345 329
75 62 45 28 37 33 37 35 36 39 38 42 46 49 51 52 53 55 58 59 61 63 65 67 70 74 74 78 80 75 82 84 93 95 97 100 117 125 111 101 84 66 30 13 357 334 339 342 332
61 35 28 19 23 19 33 27 24 31 33 36 41 46 50 52 54 54 56 59 62 65 66 67 68 68 68 65 65 66 72 70 75 80 83 86 90 111 112 91 59 31 11 3 347 344 334 331 325
134 24 353 5 9 6 23 21 15 22 27 33 38 44 48 50 52 55 56 58 62 65 65 65 63 62 61 59 58 61 63 64 68 72 73 74 74 77 61 30 28 15 10 2 349 341 334 330 327
115 121 305 336 360 358 6 10 11 14 18 22 30 38 44 47 49 53 55 56 58 60 61 62 60 58 58 57 57 55 54 60 63 62 59 56 54 51 49 34 18 6 358 352 350 342 335 329 325
192 239 254 282 328 336 345 357 6 8 11 17 21 29 39 44 47 50 53 55 56 56 56 59 61 60 59 56 54 52 51 52 55 60 57 55 52 50 38 17 11 3 354 348 345 337 337 333 326
214 231 246 256 288 302 310 325 352 1 3 6 14 20 27 35 40 42 48 54 55 56 57 58 59 58 55 53 52 49 48 50 54 55 51 47 37 34 25 14 3 356 355 347 339 333 331 328 327
220 232 234 239 253 266 294 310 339 338 345 351 360 7 14 23 32 36 39 44 49 52 55 56 56 54 51 50 49 47 45 44 44 42 36 32 33 32 19 8 2 354 348 340 331 329 327 325 324
231 235 238 237 244 260 269 286 296 301 313 332 342 348 356 7 18 28 31 32 36 42 48 49 48 48 47 46 42 40 39 36 34 31 24 18 13 10 1 353 350 345 340 334 330 331 329 327 323
229 236 239 236 239 256 260 269 272 283 283 302 313 325 332 342 354 7 16 20 20 23 30 34 35 35 36 36 34 33 30 25 22 19 14 8 5 1 354 343 338 333 331 329 329 330 328 325 323
229 232 242 239 235 247 247 259 272 284 290 288 295 305 314 319 322 330 343 357 357 355 4 16 18 21 21 20 19 17 16 15 13 9 6 1 356 354 354 349 338 333 331 328 325 325 325 325 324
230 231 240 247 248 251 247 255 265 277 291 290 289 293 301 298 299 302 306 323 333 334 339 353 357 360 2 3 5 7 7 9 9 6 2 359 355 352 350 348 342 335 330 326 323 320 321 323 321
229 229 235 243 255 271 271 254 265 268 270 273 278 278 288 287 288 290 297 306 313 317 320 326 332 338 343 349 350 353 357 359 360 357 354 351 348 347 344 341 340 338 333 325 321 319 320 320 318
231 232 230 238 251 254 254 253 264 261 268 276 275 273 272 275 275 278 283 287 290 294 297 301 307 320 331 333 337 337 342 346 347 346 346 341 339 338 336 335 332 331 330 326 322 321 321 320 320
230 230 237 234 243 250 253 251 252 255 263 263 268 271 271 272 269 271 279 282 282 286 291 287 300 311 317 323 326 328 329 333 337 338 338 334 330 328 329 330 330 328 326 326 323 322 320 317 317
231 228 231 234 236 245 253 255 257 256 260 263 261 261 261 265 267 269 269 275 276 278 283 291 300 303 306 310 312 314 316 321 327 329 328 328 325 324 324 322 323 323 322 323 320 319 320 317 316
231 232 230 232 235 239 247 255 256 252 258 262 261 262 263 262 265 268 267 271 270 273 279 286 293 296 299 302 303 305 309 314 318 321 323 323 322 320 320 319 317 317 317 318 316 315 316 315 315
Height
5878 5877 5875 5874 5873 5873 5872 5871 5870 5869 5868 5867 5866 5866 5865 5865 5865 5867 5864 5862 5863 5862 5862 5862 5862 5862 5862 5862 5862 5862 5861 5860 5860 5860 5861 5862 5863 5864 5865 5866 5867 5869 5871 5873 5874 5875 5877 5878 5879
5881 5879 5875 5874 5876 5876 5875 5873 5872 5871 5870 5868 5868 5867 5866 5866 5866 5865 5864 5863 5863 5863 5863 5863 5863 5863 5864 5864 5864 5864 5863 5863 5863 5863 5864 5864 5865 5866 5867 5869 5870 5872 5873 5875 5877 5878 5879 5880 5881
5884 5880 5877 5880 5881 5879 5877 5875 5874 5873 5872 5870 5869 5869 5868 5867 5867 5866 5865 5865 5865 5864 5864 5864 5865 5865 5865 5866 5866 5866 5866 5865 5866 5866 5866 5867 5868 5869 5870 5871 5873 5874 5876 5877 5879 5880 5881 5882 5883
5885 5882 5883 5886 5884 5882 5879 5877 5876 5874 5873 5872 5871 5870 5869 5869 5868 5868 5867 5867 5866 5866 5866 5866 5866 5867 5867 5868 5868 5868 5868 5868 5868 5868 5869 5869 5870 5872 5873 5874 5876 5877 5878 5880 5881 5882 5883 5884 5885
5885 5885 5889 5889 5887 5885 5882 5880 5878 5877 5875 5874 5873 5872 5871 5870 5870 5869 5869 5868 5868 5867 5867 5868 5868 5868 5869 5869 5870 5870 5870 5870 5870 5871 5871 5872 5873 5874 5875 5877 5878 5879 5880 5881 5882 5883 5884 5885 5886
5888 5890 5894 5892 5889 5888 5885 5882 5881 5879 5878 5876 5875 5874 5873 5872 5871 5871 5870 5870 5870 5869 5869 5869 5870 5870 5870 5870 5871 5871 5872 5872 5872 5873 5874 5874 5875 5876 5877 5879 5880 5881 5882 5883 5884 5885 5886 5887 5887
5893 5896 5897 5895 5892 5890 5888 5885 5883 5882 5880 5879 5877 5876 5875 5874 5873 5873 5872 5872 5871 5871 5871 5871 5871 5871 5872 5872 5872 5873 5873 5874 5874 5875 5876 5877 5878 5878 5879 5880 5882 5883 5884 5885 5886 5886 5887 5888 5889
5899 5901 5900 5898 5895 5893 5890 5888 5886 5884 5883 5881 5880 5878 5877 5876 5875 5875 5874 5874 5873 5873 5873 5873 5873 5873 5873 5873 5874 5874 5875 5876 5876 5877 5878 5879 5880 5881 5882 5882 5883 5884 5885 5886 5887 5888 5889 5889 5890
5904 5905 5902 5900 5898 5895 5893 5891 5889 5887 5885 5884 5883 5881 5880 5879 5878 5877 5876 5876 5876 5875 5875 5875 5875 5875 5875 5874 5875 5876 5877 5877 5878 5879 5880 5881 5882 5883 5884 5884 5885 5886 5887 5888 5889 5890 5890 5891 5891
5908 5906 5905 5903 5900 5898 5895 5893 5891 5890 5888 5887 5885 5884 5882 5881 5880 5879 5879 5878 5878 5877 5877 5877 5877 5877 5876 5876 5877 5877 5878 5879 5879 5880 5881 5882 5883 5884 5885 5886 5887 5888 5889 5889 5890 5891 5891 5892 5892
5910 5909 5907 5904 5902 5900 5898 5896 5894 5892 5891 5890 5888 5887 5885 5884 5883 5882 5881 5881 5880 5880 5879 5879 5878 5878 5878 5878 5879 5879 5880 5880 5881 5882 5883 5884 5885 5886 5886 5887 5888 5889 5889 5890 5891 5892 5892 5892 5893
5912 5910 5908 5906 5904 5903 5901 5899 5898 5896 5895 5893 5891 5890 5888 5887 5886 5885 5884 5883 5883 5882 5882 5881 5881 5880 5880 5880 5881 5881 5881 5882 5883 5883 5884 5886 5887 5887 5888 5889 5889 5890 5891 5891 5892 5893 5893 5893 5894
5913 5912 5910 5908 5907 5905 5904 5902 5901 5899 5897 5895 5894 5892 5891 5890 5888 5888 5887 5886 5885 5884 5884 5883 5883 5882 5882 5882 5882 5883 5883 5884 5884 5885 5886 5887 5888 5889 5889 5890 5891 5892 5892 5892 5893 5893 5893 5894 5894
5915 5914 5912 5911 5909 5908 5906 5905 5903 5902 5900 5898 5897 5895 5894 5892 5891 5890 5889 5888 5887 5886 5886 5885 5885 5884 5884 5884 5884 5884 5885 5885 5886 5887 5888 5888 5889 5890 5891 5891 5892 5892 5892 5893 5893 5894 5894 5894 5894
5914 5914 5914 5913 5911 5910 5909 5908 5906 5905 5903 5901 5900 5898 5896 5895 5894 5893 5892 5891 5890 5889 5888 5888 5887 5887 5887 5887 5887 5887 5887 5887 5888 5888 5889 5890 5890 5891 5891 5892 5892 5892 5893 5893 5893 5894 5894 5894 5894
5915 5915 5915 5915 5914 5913 5912 5910 5909 5907 5905 5904 5902 5900 5899 5898 5896 5895 5894 5893 5892 5892 5891 5890 5890 5890 5889 5889 5889 5889 5889 5889 5890 5890 5890 5891 5891 5891 5892 5892 5893 5893 5893 5893 5893 5893 5894 5894 5894
5916 5916 5916 5917 5916 5915 5914 5912 5911 5909 5908 5906 5904 5903 5902 5900 5899 5898 5897 5896 5895 5894 5894 5893 5893 5893 5892 5892 5892 5892 5891 5891 5891 5891 5891 5892 5892 5892 5892 5893 5893 5893 5893 5893 5893 5893 5893 5893 5893
5917 5917 5918 5918 5918 5917 5916 5914 5913 5911 5910 5908 5907 5905 5904 5903 5902 5901 5900 5898 5898 5897 5897 5896 5896 5895 5895 5895 5894 5894 5894 5893 5893 5893 5893 5892 5893 5893 5893 5893 5893 5893 5893 5893 5893 5893 5893 5893 5892
5917 5919 5919 5918 5919 5919 5917 5916 5914 5913 5911 5910 5908 5907 5906 5905 5904 5903 5902 5901 5900 5900 5899 5899 5898 5898 5898 5897 5897 5896 5896 5895 5895 5894 5894 5893 5894 5894 5894 5894 5894 5894 5894 5893 5893 5893 5892 5892 5891
5917 5919 5919 5920 5919 5920 5918 5916 5915 5914 5913 5912 5910 5909 5908 5907 5906 5905 5904 5904 5903 5902 5901 5901 5901 5900 5900 5899 5898 5898 5897 5897 5896 5896 5896 5895 5895 5895 5895 5894 5894 5894 5894 5893 5893 5892 5892 5891 5890
5916 5918 5918 5919 5919 5918 5919 5917 5915 5915 5914 5913 5912 5911 5909 5909 5908 5907 5906 5905 5905 5904 5904 5903 5903 5902 5901 5901 5901 5900 5899 5899 5898 5898 5897 5896 5896 5896 5895 5895 5894 5894 5894 5893 5892 5892 5891 5890 5890
5915 5915 5916 5917 5917 5917 5918 5917 5915 5914 5914 5913 5913 5912 5910 5910 5909 5908 5907 5907 5906 5906 5906 5905 5905 5904 5903 5903 5902 5902 5901 5900 5900 5899 5898 5897 5897 5896 5895 5895 5894 5894 5893 5893 5892 5891 5890 5889 5888
5912 5913 5914 5915 5916 5916 5916 5916 5914 5912 5912 5912 5912 5912 5911 5910 5909 5909 5909 5908 5907 5907 5907 5906 5906 5905 5905 5904 5904 5903 5902 5902 5901 5900 5899 5898 5897 5896 5895 5895 5894 5893 5893 5892 5891 5890 5889 5888 5887
5908 5911 5912 5912 5914 5914 5914 5914 5912 5911 5911 5911 5911 5911 5910 5910 5909 5909 5909 5909 5908 5908 5907 5907 5907 5906 5906 5905 5905 5904 5903 5902 5901 5900 5899 5898 5897 5896 5895 5894 5893 5893 5892 5891 5890 5889 5888 5887 5886
5906 5908 5910 5910 5910 5910 5911 5911 5911 5911 5911 5911 5911 5910 5909 5909 5909 5909 5908 5908 5908 5908 5908 5907 5907 5907 5906 5906 5905 5904 5904 5903 5902 5901 5899 5898 5897 5896 5895 5894 5893 5892 5891 5890 5889 5888 5887 5886 5884
5902 5905 5907 5908 5909 5908 5908 5909 5910 5910 5910 5910 5909 5908 5908 5908 5908 5908 5908 5908 5908 5907 5907 5907 5907 5906 5906 5905 5905 5904 5904 5903 5902 5900 5899 5898 5897 5896 5894 5893 5892 5891 5890 5889 5888 5887 5885 5884 5882
5898 5900 5903 5906 5906 5908 5907 5908 5909 5908 5909 5908 5907 5906 5906 5907 5907 5906 5907 5907 5907 5907 5906 5906 5906 5906 5906 5905 5904 5904 5903 5902 5901 5900 5898 5897 5896 5895 5894 5892 5891 5890 5888 5887 5886 5884 5883 5881 5880
5894 5897 5899 5900 5902 5903 5904 5905 5906 5905 5906 5906 5906 5905 5904 5904 5904 5904 5905 5905 5905 5905 5904 5904 5905 5904 5904 5904 5903 5903 5902 5901 5900 5899 5898 5896 5895 5893 5892 5891 5889 5888 5886 5885 5884 5882 5881 5879 5877
5889 5892 5894 5896 5899 5900 5901 5902 5902 5902 5902 5903 5903 5903 5903 5902 5902 5901 5902 5903 5903 5903 5903 5904 5904 5903 5903 5903 5902 5901 5901 5900 5899 5898 5896 5895 5893 5892 5890 5889 5887 5886 5884 5883 5881 5880 5878 5876 5874
5884 5886 5890 5892 5894 5895 5897 5900 5897 5897 5898 5899 5900 5900 5900 5899 5899 5899 5899 5900 5899 5900 5901 5901 5902 5902 5901 5901 5901 5900 5899 5898 5897 5896 5894 5893 5891 5890 5888 5886 5884 5883 5881 5880 5878 5877 5875 5873 5871